Miscellaneous Local Product
Issued by NWS North Platte, NE

Home | Current Version | Previous Version | Text Only | Print | Product List | Glossary On
Versions: 1 2 3 4 5 6 7 8 9 10 11 12 13 14 15 16 17 18 19 20 21 22 23 24 25 26 27 28 29 30 31 32 33 34 35 36 37 38 39 40 41 42 43 44 45 46 47 48 49 50
000
AXUS43 KLBF 211410
MISLBF


WESTERN AND NORTH CENTRAL NEBRASKA HOURLY WEATHER ROUNDUP
NATIONAL WEATHER SERVICE NORTH PLATTE NE
900 AM CDT WED APR 21 2021

NOTE: "FAIR" INDICATES FEW OR NO CLOUDS BELOW 12,000 FEET WITH NO
SIGNIFICANT WEATHER AND/OR OBSTRUCTIONS TO VISIBILITY.

NOTE: STATIONS NOT REPORTING SKY/WEATHER AND PRESSURE ARE
PROVIDED BY RAWS AND APRS NETWORKS AND ARE NOT UNDER NATIONAL
WEATHER SERVICE QUALITY CONTROL.

...OBSERVATIONS IN AND NEAR THE EASTERN PANHANDLE OF NEBRASKA...

CITY           SKY/WX    TMP DP  RH WIND       PRES   REMARKS
PINE RIDGE     SUNNY     30  20  66 W8        30.28R
GORDON         SUNNY     28  18  65 W7        30.27R
CHADRON        SUNNY     26  20  77 W7        30.29S WCI  18
ALLIANCE       CLOUDY    25  21  85 SW5       30.27R WCI  19
SIDNEY         SUNNY     26  20  77 CALM      30.25F
$$

...OBSERVATIONS IN NORTHERN NEBRASKA AND FAR SOUTHERN SOUTH DAKOTA...

CITY           SKY/WX    TMP DP  RH WIND       PRES   REMARKS
WINNER         SUNNY     33  21  61 W9        30.28S
VALENTINE      SUNNY     27  19  72 W7        30.28S WCI  19
AINSWORTH      CLOUDY    27  22  80 W8        30.28S WCI  19
O`NEILL        MOSUNNY   30  23  73 NW12      30.30S
THEDFORD       SUNNY     29  22  73 W12       30.30R WCI  20
BROKEN BOW     SUNNY     31  25  78 W9        30.31R
ORD            SUNNY     31  24  75 NW10      30.31R
ALBION         SUNNY     30  26  85 NW8       30.31S
EWING            N/A     28  25  87 NW6         N/A
CHAMBERS         N/A     28  23  82 CALM        N/A
BUTTE            N/A     30  24  78 N6          N/A
VALENTINE NWR    N/A     27  21  77 W9          N/A  WCI  18
HALSEY           N/A     29  22  74 W6          N/A
$$

...OBSERVATIONS IN SOUTHWEST NEBRASKA AND FAR NORTHEAST COLORADO...

CITY           SKY/WX    TMP DP  RH WIND       PRES   REMARKS
WRAY           FAIR      30  27  86 MISG      30.31S
HOLYOKE        SUNNY     34  25  69 N5        30.31R
IMPERIAL       SUNNY     29  21  72 N8        30.32R
OGALLALA       SUNNY     31  24  73 W3        30.31F
NORTH PLATTE   SUNNY     28  21  75 NW8       30.33R WCI  20
MCCOOK         SUNNY     31  23  72 N15       30.33F
LEXINGTON      SUNNY     29  25  84 W9        30.34S
CALLAWAY         N/A     26  24  90 NW7         N/A  WCI  18
STAPLETON        N/A     26  23  87 CALM        N/A
$$

...OBSERVATIONS IN CENTRAL LINCOLN COUNTY AREA...

CITY           SKY/WX    TMP DP  RH WIND       PRES   REMARKS
N.P. AIRPORT   SUNNY     28  21  75 NW8       30.33R WCI  20
N.P. DOWNTOWN    N/A     26  21  81 W3          N/A
N.P. SOUTHEAST   N/A     26  20  78 NW3         N/A
$$

...OBSERVATIONS ACROSS THE ROCKIES AND WESTERN HIGH PLAINS...

CITY           SKY/WX    TMP DP  RH WIND       PRES   REMARKS
SCOTTSBLUFF    SUNNY     29  22  75 NE3       30.28S
KIMBALL        MOSUNNY   26  20  77 CALM      30.24R
CHEYENNE       LGT SNOW  23  20  88 SE5       30.18S FOG     WCI  17
DENVER         FLURRIES  27  22  81 E13       30.19S WCI  16
STEAMBOAT      CLOUDY    22  13  69 CALM      30.07S
COPPER MTN     LGT SNOW  21  14  73 S10       30.07S WCI  10
LEADVILLE      CLOUDY    18  16  92 CALM      30.08S
ASPEN          CLOUDY    30  15  53 N3        30.02S
GUNNISON       PTSUNNY   32  14  47 N7        30.07R
TELLURIDE      CLOUDY    39  12  33 E3        30.03S
LARAMIE        CLOUDY    17  11  77 CALM      30.11R
CASPER         SUNNY     23  19  85 SW3       30.18S
SHERIDAN       SUNNY     24  12  60 CALM      30.19S
JACKSON        SUNNY     22  15  75 N6        30.10F WCI  14
$$

...OBSERVATIONS ACROSS THE NORTHERN PLAINS...

CITY           SKY/WX    TMP DP  RH WIND       PRES   REMARKS
RAPID CITY     SUNNY     29  14  53 W8        30.25S
PIERRE         SUNNY     32  20  61 W9        30.27R
SIOUX FALLS    MOSUNNY   31  20  63 NW7       30.27R
ABERDEEN       CLOUDY    31  24  75 W8        30.24S
WILLISTON        N/A    N/A N/A N/A MISG        N/A
DICKINSON      SUNNY     30  16  56 W10       30.19R
BISMARCK       SUNNY     30  20  66 W6        30.22F
FARGO          MOSUNNY   34  22  61 W12       30.16F
GRAND FORKS    CLOUDY    34  23  64 NW8       30.14F
$$

...OBSERVATIONS ACROSS THE CENTRAL AND SOUTHERN PLAINS...

CITY           SKY/WX    TMP DP  RH WIND       PRES   REMARKS
GRAND ISLAND   SUNNY     32  25  75 NW9       30.34R
LINCOLN        MOSUNNY   36  24  62 NW20      30.34R
OMAHA          PTSUNNY   35  24  64 NW21      30.28R
DES MOINES     MOSUNNY   34  27  75 N12       30.21R
KANSAS CITY    SUNNY     40  32  73 NW13      30.25R
WICHITA        SUNNY     40  30  67 NW8       30.33R
DODGE CITY     CLOUDY    34  26  72 N16       30.33R
OKLAHOMA CITY  PTSUNNY   41  26  55 NW8       30.34R
DALLAS         MOSUNNY   48  30  49 VRB3      30.40R
AMARILLO       SUNNY     39  20  46 S8        30.31R
$$



USA.gov is the U.S. government's official web portal to all federal, state and local government web resources and services.